Regional Weather Roundup
Issued by NWS Huntsville, AL

Home | Current Version | Previous Version | Text Only | Print | Product List | Glossary On
Versions: 1 2 3 4 5 6 7 8 9 10 11 12 13 14 15 16 17 18 19 20 21 22 23 24 25 26 27 28 29 30 31 32 33 34 35 36 37 38 39 40 41 42 43 44 45 46 47 48 49 50
000
ASUS44 KHUN 270310
RWRHUN

WEATHER ROUNDUP FOR THE TENNESSEE VALLEY
NATIONAL WEATHER SERVICE HUNTSVILLE AL
1000 PM CDT FRI MAY 26 2017

ALZ001>004-270400-
NORTHWEST ALABAMA

CITY           SKY/WX    TMP DP  RH WIND       PRES   REMARKS
COURTLAND HCN    N/A     70 N/A N/A CALM        N/A
RUSSELLVILLE     N/A     70 N/A N/A MISG        N/A
SHOALS AIRPORT CLEAR     72  62  71 CALM      29.96R
SHOALS TVA RES   N/A     73 N/A N/A MISG        N/A
$$

ALZ005>007-016-270400-
NORTH CENTRAL ALABAMA

CITY           SKY/WX    TMP DP  RH WIND       PRES   REMARKS
CULLMAN AG STN   N/A     72 N/A N/A SW3         N/A
DECATUR AP     CLEAR     71  64  78 S6        29.96R
HUNTSVILLE AP  PTCLDY    74  64  71 SE3       29.96R
MERIDIANVILLE  CLEAR     73  59  60 CALM      29.97R
VINEMONT AP    FAIR      72  62  71 S6        29.99R
$$

ALZ008>010-270400-
NORTHEAST ALABAMA

CITY           SKY/WX    TMP DP  RH WIND       PRES   REMARKS
ALBERTVILLE    CLEAR     72  68  88 S5        29.98R
FORT PAYNE     CLEAR     66  61  82 CALM      29.98R
SCOTTSBORO AP  CLEAR     70  64  83 CALM      29.98R
SCOTTSBORO HCN   N/A     68 N/A N/A MISG        N/A
VALLEY HEAD      N/A     68 N/A N/A MISG        N/A
$$

TNZ076-096-097-270400-
SOUTHEASTERN MIDDLE TENNESSEE

CITY           SKY/WX    TMP DP  RH WIND       PRES   REMARKS
TULLAHOMA        N/A     70  57  64 SW3       29.99R
WINCHESTER     CLEAR     68  61  77 SE3         N/A
$$

...SURROUNDING SITES...

CITY           SKY/WX    TMP DP  RH WIND       PRES   REMARKS
ATLANTA        PTCLDY    74  61  63 SW6       30.01R
ANNISTON       CLEAR     73  64  73 CALM      29.98R
BIRMINGHAM     CLEAR     78  62  57 S10       30.00R
CHATTANOOGA    PTCLDY    74  62  66 SW5       29.98R
CORINTH        FAIR      70  63  78 CALM      29.93R
DALTON         CLEAR     68  64  88 CALM      29.99R
GADSDEN        CLEAR     69  64  84 CALM      29.98R
GOLDEN TRNGL   CLEAR     73  59  60 S3        29.91R
HALEYVILLE     FAIR      71  63  75 S5        29.99R
JACKSON TN     CLOUDY    77  65  66 S6        29.91R
MEMPHIS        CLOUDY    80  69  69 SW7       29.91R
NASHVILLE      PTCLDY    74  60  61 S5        29.93R
OXFORD MS      MOCLDY    73  63  68 S5        29.95R
ROME           CLEAR     69  66  90 CALM      29.98R
SAVANNAH       PTCLDY    68  64  88 CALM      29.93R
SELMER         PTCLDY    70  63  78 CALM      29.93R
TUPELO         CLEAR     73  61  65 S5        29.93R
TUSCALOOSA     CLEAR     74  63  68 S5        29.96R
$$

...GULF COAST WEATHER...

CITY           SKY/WX    TMP DP  RH WIND       PRES   REMARKS
GULFPORT       CLEAR     76  69  79 S7        30.02R
PASCAGOULA     CLEAR     67  64  90 CALM      30.03R
MOBILE         PTCLDY    71  64  78 S8        30.04R
GULF SHORES    CLEAR     70  68  93 S9        30.04R
PENSACOLA      CLEAR     73  64  73 S9        30.03R
DESTIN         PTCLDY    77  69  76 VRB3      30.04R
APPALACHICOLA  CLEAR     67  64  90 CALM      30.05R
$$




USA.gov is the U.S. government's official web portal to all federal, state and local government web resources and services.